Tracking 25949 objects as of 8-Aug-2022
HD Live streaming from Space Station
objects crossing your sky now

COSMOS 1275 DEB

Track COSMOS 1275 DEB now!
10-day predictions


NORAD ID: 42183
Int'l Code: 1981-053SX
Perigee: 920.6 km
Apogee: 997.3 km
Inclination: 82.9 °
Period: 104.1 minutes
Semi major axis: 7329 km
RCS: Unknown
Launch date: June 4, 1981
Source: Commonwealth of Independent States (former USSR) (CIS)
Launch site: PLESETSK MISSILE AND SPACE COMPLEX (PKMTR)

Note: This is SATELLITE DEBRIS
aabbcc
Your satellite tracking list
Your tracking list is empty




NASA's NSSDC Master Catalog

Two Line Element Set (TLE):
1 42183U 81053SX  22215.71844796  .00000386  00000-0  33298-3 0  9998
2 42183  82.9392 195.9599 0052358 127.7732  47.4389 13.83415051418900
Source of the keplerian elements: AFSPC